Lapse_Rate
1.8 0.6 0.9 0.8 0.7 0.8 1.2 1.6 2.1 2.4 2.8 3.0 2.9 3.1 3.1 3.2 3.3 3.4 3.5 3.8 4.0 4.3 4.6 4.6 4.7 4.8 4.7 4.6 4.4 4.2 3.9 3.9 4.5 5.0 5.2 5.5 5.6 5.3 5.0 4.9 5.0 5.0 4.9
1.1 0.9 1.0 0.9 0.6 0.6 0.8 1.0 1.5 2.0 2.6 2.9 3.1 3.2 3.0 3.0 3.2 3.3 3.5 3.8 4.1 4.4 4.5 4.5 4.7 4.7 4.4 4.1 4.1 4.3 4.1 4.0 4.5 5.0 5.2 6.1 5.6 5.5 5.2 5.4 5.3 4.6 4.7
0.9 1.0 1.4 1.2 1.0 0.9 0.9 0.9 1.3 1.8 2.4 2.7 3.0 3.1 2.9 2.9 3.1 3.3 3.4 3.6 4.0 4.3 4.5 4.6 4.7 4.6 4.3 4.0 4.1 4.3 4.2 3.9 4.4 5.0 5.4 5.4 5.5 5.6 5.1 5.2 5.2 5.0 4.8
0.6 1.0 1.3 1.6 1.6 1.5 1.3 1.3 1.4 1.7 2.1 2.4 2.8 2.9 2.9 3.0 3.1 3.3 3.2 3.5 4.0 4.2 4.5 4.6 4.6 4.2 3.9 3.9 3.8 4.0 4.1 3.9 4.0 4.9 5.4 5.7 6.0 6.0 5.6 5.0 5.2 5.0 4.8
1.0 1.3 1.6 2.0 1.9 1.8 1.6 1.6 1.6 1.8 2.1 2.4 2.8 2.8 3.0 3.2 3.3 3.3 3.3 3.7 4.1 4.4 4.6 4.8 4.6 4.1 3.8 3.7 3.7 3.7 3.8 3.8 3.9 4.2 5.3 5.4 5.5 6.1 6.0 5.8 5.2 5.2 4.8
1.2 1.3 1.7 2.4 2.4 2.1 1.9 1.9 1.9 2.0 2.1 2.6 2.8 3.0 3.2 3.5 3.7 3.6 3.6 3.9 4.3 4.6 4.6 4.4 4.0 3.9 4.0 3.9 3.9 3.9 3.8 3.6 3.6 3.6 4.0 5.3 5.6 6.5 6.3 5.9 5.3 5.3 5.2
0.6 1.1 1.6 2.4 2.4 2.3 2.2 2.2 2.3 2.3 2.4 2.8 3.1 3.2 3.4 3.4 3.6 3.6 3.5 3.8 4.1 4.1 4.2 4.3 4.3 4.1 4.2 4.2 4.3 4.2 4.1 4.1 3.6 3.3 3.9 5.3 5.9 7.0 7.3 6.3 5.8 5.2 5.3
0.5 1.1 1.8 2.3 2.4 2.4 2.4 2.4 2.4 2.6 2.6 3.0 3.0 3.2 3.3 3.3 3.3 3.5 3.4 3.5 3.8 4.0 4.1 4.2 4.3 4.3 4.4 4.5 4.5 4.5 4.3 4.2 4.2 3.4 3.6 4.3 6.0 6.5 7.8 7.4 6.5 5.6 5.2
1.2 1.4 1.5 2.3 1.7 2.1 2.2 2.1 2.3 2.5 2.7 2.8 2.7 2.9 3.3 3.2 2.9 3.1 3.0 3.2 3.4 3.6 3.9 4.1 4.5 4.6 4.6 4.6 4.9 5.1 4.8 4.2 3.8 3.6 3.8 4.5 5.3 6.9 7.7 8.2 7.3 6.2 5.6
1.7 1.7 1.5 1.4 1.4 1.1 1.6 2.2 2.5 2.3 2.6 2.6 2.8 3.0 2.9 3.3 3.2 2.9 2.7 3.0 3.3 3.8 4.3 4.6 4.5 4.8 4.9 5.2 5.4 4.1 4.5 4.8 4.3 3.8 3.8 4.3 4.9 5.8 7.3 8.0 8.1 7.8 7.0
2.5 2.1 1.8 1.4 1.3 1.4 2.0 2.5 2.6 3.2 3.8 3.0 3.0 3.2 3.6 3.1 3.4 3.4 3.7 4.0 4.0 4.2 4.0 3.9 4.2 4.7 5.1 5.2 5.2 5.1 4.9 5.2 5.0 4.5 3.9 5.1 6.1 6.7 7.4 7.7 7.6 7.4 7.8
2.3 2.1 1.7 1.0 1.0 1.8 2.3 1.7 1.9 2.6 2.8 2.8 3.0 3.7 3.7 4.1 4.0 3.6 3.3 3.4 3.7 3.9 3.6 3.7 3.9 4.4 4.5 4.5 5.0 5.3 4.8 4.9 5.1 5.1 4.8 5.6 5.8 6.0 6.1 6.7 7.2 6.7 6.4
2.6 2.2 1.3 0.7 0.8 0.8 1.1 0.9 1.3 1.5 2.2 2.7 3.6 5.5 5.8 5.4 4.6 3.8 3.2 2.8 2.9 2.9 2.8 2.9 3.2 3.2 3.6 3.6 3.7 4.1 4.3 4.5 4.4 4.9 4.7 4.6 5.2 5.9 5.9 6.0 6.3 6.9 7.0
3.3 3.0 1.6 1.6 1.4 1.6 1.7 1.7 1.8 1.1 1.2 0.9 2.2 4.1 4.1 2.7 2.7 1.9 1.7 1.4 1.6 1.9 1.4 1.5 1.2 1.9 2.0 2.5 2.4 2.5 2.8 2.8 3.2 3.6 3.3 4.4 4.6 5.2 5.5 5.7 5.7 5.7 5.5
4.0 3.5 2.8 3.0 2.9 2.9 1.8 1.4 1.7 -0.4 0.1 0.2 0.6 1.9 2.8 1.3 0.6 1.2 1.0 1.4 1.3 1.3 0.5 -0.1 0.1 0.0 0.2 1.0 1.3 1.4 1.3 1.7 2.5 1.7 1.6 2.6 3.5 4.1 4.8 5.5 5.3 6.0 5.7
3.6 4.3 4.7 5.1 4.9 2.9 1.3 0.4 -0.5 -1.1 -1.1 -0.7 -0.3 0.5 1.7 1.2 0.4 -0.0 -0.1 -0.1 -0.2 0.2 -0.3 -0.7 -1.1 -1.3 -1.5 -0.5 -0.3 0.3 0.6 1.4 2.5 1.6 0.7 0.9 2.0 3.1 4.2 4.8 5.5 6.3 5.9
3.3 3.5 3.6 5.1 4.1 3.9 1.6 0.2 -0.4 -0.6 -0.6 -1.4 -0.9 0.4 1.1 0.8 0.5 -0.4 -1.6 -2.1 -1.2 -0.6 -0.6 -0.7 -1.1 -1.4 -1.9 -0.8 -0.7 -0.6 0.2 1.1 1.7 1.2 1.3 1.5 1.9 2.5 3.1 4.1 5.1 5.8 6.0
2.6 2.7 3.5 4.8 4.1 3.4 2.0 0.7 1.0 0.0 -0.2 -0.9 -0.1 0.6 0.6 0.6 0.6 -0.6 -1.9 -2.2 -1.0 -1.0 -1.3 -1.8 -2.2 -1.8 -1.8 -1.9 -2.0 -1.9 -1.3 0.6 1.4 2.6 2.7 2.5 2.1 2.6 3.5 3.8 4.0 4.1 4.7
2.1 2.6 2.6 2.8 3.3 3.1 2.4 0.8 0.6 0.2 -0.4 -0.5 -0.1 0.5 0.5 0.5 0.5 -0.5 -1.7 -1.8 -1.0 -1.9 -2.3 -1.7 -2.4 -2.1 -2.1 -2.1 -0.7 -1.1 -0.7 1.2 3.2 4.4 4.0 3.4 3.1 2.9 3.3 4.0 3.8 3.8 3.8
2.1 1.9 1.2 2.5 3.2 2.9 2.6 1.2 -0.2 -0.9 -1.0 0.2 0.1 0.6 0.7 0.5 0.6 -0.7 -1.4 -1.7 -1.3 -2.3 -2.4 -2.3 -2.1 -2.1 -2.0 -2.3 0.7 0.5 0.9 3.0 4.1 4.9 4.1 4.6 3.9 3.6 3.6 3.3 3.4 3.8 3.4
2.3 1.5 1.3 1.2 1.7 2.3 2.1 1.2 0.6 -1.1 -0.9 -0.4 0.4 1.1 0.6 0.7 0.4 -0.5 -1.5 -1.7 -1.6 -2.2 -2.3 -1.8 -2.0 -1.5 -1.2 -1.7 0.9 2.0 3.9 3.7 4.1 3.6 3.9 3.8 4.3 3.9 3.9 3.8 3.2 2.6 2.8
1.7 2.1 1.8 1.3 1.2 2.2 1.8 1.1 -0.9 -0.5 -1.1 -0.6 -0.0 0.4 0.6 0.6 0.6 -0.2 -1.3 -1.9 -1.8 -2.2 -2.3 -2.3 -1.5 -1.4 -1.7 -2.6 0.7 1.4 4.2 5.2 3.8 4.0 3.3 3.7 2.3 4.1 4.2 4.1 3.8 3.4 3.4
2.0 2.1 1.6 1.2 1.1 1.6 1.8 0.6 0.5 -0.1 -0.1 0.1 -0.4 -0.3 0.6 1.1 0.8 0.4 -0.4 -1.2 -1.9 -2.1 -2.4 -2.3 -1.9 -1.2 -1.1 -1.3 -1.5 0.7 2.5 3.6 3.2 3.8 2.9 2.6 2.6 2.5 3.4 4.4 4.1 3.5 3.5
1.9 2.2 1.9 1.6 1.6 2.4 2.2 1.3 0.9 0.4 0.8 -1.2 -1.6 -0.9 0.0 1.2 0.7 0.7 0.3 -0.8 -1.5 -1.9 -1.9 -1.8 -1.8 -1.8 -1.1 -0.3 -0.2 -0.0 -0.6 1.1 2.5 4.4 3.4 3.0 3.5 4.5 3.4 4.2 4.1 3.8 3.5
2.5 2.3 2.1 2.4 3.1 2.4 2.0 1.8 1.2 1.4 -0.1 0.1 -0.4 0.0 -0.1 -0.4 0.4 0.0 -0.5 -0.8 -1.4 -1.8 -2.2 -2.2 -2.1 -1.6 -1.0 -1.1 -0.4 -0.2 -0.2 0.2 0.4 1.7 2.4 1.6 3.1 4.1 4.0 3.5 3.8 3.7 4.0
2.9 2.5 3.0 3.6 3.2 2.8 2.5 1.9 1.8 1.5 1.2 1.2 0.7 0.4 -0.1 -0.4 -0.4 -0.3 -0.3 -0.4 -0.6 -1.2 -1.3 -1.6 -1.4 -1.0 -1.1 -0.8 -0.6 -0.4 0.6 1.8 1.8 1.5 1.9 1.7 2.9 4.2 4.7 4.3 3.8 3.8 4.0
Wind_Speed
8 13 18 17 18 19 20 20 20 20 20 18 17 17 19 19 18 18 17 16 16 14 14 12 11 11 10 10 9 10 10 10 10 9 9 10 10 12 12 12 14 12 14
14 15 19 18 18 19 19 19 19 19 19 18 16 16 16 16 16 16 15 14 13 12 12 11 9 9 9 9 8 10 11 10 9 6 5 6 8 9 7 7 12 12 12
13 16 17 18 17 18 19 19 19 18 18 18 17 15 16 15 14 13 13 12 11 10 10 9 8 8 7 7 7 8 9 9 8 7 6 5 3 6 5 7 13 12 10
15 15 15 19 19 19 20 19 19 18 18 18 17 16 15 14 13 12 12 11 10 9 8 8 7 6 6 5 5 6 7 7 7 8 6 3 4 5 6 12 12 12 11
12 15 16 20 19 19 20 19 19 18 18 17 17 14 14 12 11 10 10 9 8 7 6 5 4 5 5 4 4 6 7 7 7 7 9 10 8 6 9 10 12 12 11
10 13 18 20 19 18 18 18 18 18 20 17 17 15 13 11 9 9 9 8 7 6 6 6 7 4 4 4 5 6 8 9 9 7 8 10 11 12 13 12 12 12 11
10 13 14 19 18 17 17 18 17 17 19 16 15 15 13 13 10 8 9 8 7 6 6 5 5 5 6 6 6 7 8 9 9 8 9 11 12 12 14 15 13 12 12
14 11 13 15 16 17 17 18 18 17 17 16 16 15 14 14 13 11 10 9 8 7 6 6 5 6 7 9 10 11 12 12 10 10 10 10 13 9 15 16 15 14 14
12 12 12 14 13 16 18 19 18 16 16 16 17 18 15 15 15 13 11 10 9 8 7 6 6 8 9 10 11 15 12 12 11 11 9 9 9 11 14 11 13 14 14
11 11 9 12 12 14 14 19 19 17 16 17 17 17 17 15 14 11 10 9 8 8 8 11 11 11 12 12 15 16 6 9 11 11 12 9 12 11 9 10 11 12 11
11 13 10 9 10 12 12 14 18 17 16 17 16 16 16 14 13 11 10 10 10 7 11 15 16 14 12 14 15 15 11 12 10 11 11 11 12 11 8 7 7 12 11
15 13 10 9 9 13 12 12 14 14 14 15 15 14 14 14 12 11 11 11 15 16 15 13 14 12 12 10 11 11 10 11 10 10 9 14 15 13 13 7 6 6 6
16 12 12 11 12 9 9 10 10 13 11 10 10 11 13 12 13 10 14 12 12 12 12 12 11 11 10 10 10 11 11 11 10 10 8 12 10 11 11 9 7 6 6
15 16 13 12 10 9 12 10 10 9 10 8 9 11 12 9 11 10 11 10 11 10 10 10 9 9 10 10 10 9 10 9 10 13 13 11 13 13 13 14 13 14 15
16 16 14 12 10 8 7 6 8 6 9 9 11 14 16 10 5 10 9 10 11 10 8 7 7 7 8 8 9 9 8 8 11 11 11 15 15 15 14 14 14 14 16
17 18 16 13 10 7 5 5 4 8 11 12 12 13 15 15 12 9 6 7 9 9 8 7 4 3 3 4 4 7 6 7 9 11 11 16 21 21 20 21 20 19 17
14 18 17 16 8 8 8 6 7 9 12 9 10 13 15 16 13 11 6 4 7 7 8 7 6 7 4 5 5 6 7 9 6 12 11 11 16 20 20 21 21 20 22
17 18 15 12 13 12 9 6 7 8 10 9 9 10 12 15 16 10 5 4 7 10 9 5 4 3 3 3 2 3 3 5 12 12 11 10 12 13 17 19 18 17 18
19 18 13 14 16 15 12 9 9 9 8 9 9 8 10 14 14 13 7 8 10 8 5 3 4 3 3 4 4 4 4 3 5 10 9 10 12 14 16 15 17 19 19
19 18 18 15 17 16 12 10 7 6 6 8 6 6 7 10 12 12 9 8 10 4 4 3 4 3 2 3 3 6 5 6 6 5 5 10 11 11 12 15 16 17 19
18 19 20 18 15 13 11 9 8 6 4 3 6 6 7 8 11 10 7 7 8 4 4 3 2 5 6 5 3 4 8 7 8 6 7 5 7 11 12 15 16 15 14
22 20 17 16 15 12 10 7 5 8 4 4 6 7 8 9 10 9 7 4 5 4 5 5 3 2 3 4 3 1 3 3 5 6 5 5 6 10 13 15 17 15 15
20 19 18 17 16 13 13 9 8 7 5 3 4 4 4 9 10 11 9 6 5 4 4 4 4 4 3 4 6 3 2 3 1 3 5 5 6 4 7 12 13 14 16
18 16 16 15 14 11 13 11 15 8 7 4 4 4 4 9 9 9 9 8 7 4 5 4 4 3 3 3 2 4 5 2 2 2 2 3 4 5 5 7 10 11 12
14 13 13 13 12 11 10 13 11 11 4 7 7 9 6 6 10 10 10 8 6 4 4 6 5 6 3 3 2 1 3 4 4 3 0 3 3 4 4 5 10 11 12
12 12 12 12 8 10 11 14 15 14 12 11 9 7 5 4 3 8 9 7 7 5 4 4 5 6 5 4 3 4 2 2 1 3 2 1 1 3 3 5 7 9 12
Wind_Direction
164 157 148 144 141 138 137 133 131 127 121 117 114 112 112 112 114 114 111 108 105 103 101 97 92 88 82 75 68 69 69 69 78 92 106 113 116 121 124 122 121 124 124
136 150 142 138 137 138 139 136 133 131 128 127 124 118 114 115 115 115 114 112 109 106 103 101 94 86 77 69 58 56 54 48 48 56 91 112 114 124 122 129 135 132 130
134 138 137 136 133 133 137 137 137 135 133 131 127 126 125 123 120 120 117 115 116 113 108 104 97 85 73 64 49 42 51 46 32 25 19 8 129 138 123 129 136 135 130
133 137 136 135 132 133 136 137 139 138 137 135 136 136 130 126 126 128 118 114 115 116 116 114 108 105 87 70 51 25 26 35 23 359 356 316 256 179 148 137 143 143 142
127 134 141 138 135 134 135 138 139 138 136 135 134 135 130 130 129 125 118 114 108 105 105 93 101 98 79 56 29 7 358 6 11 358 337 318 273 207 183 174 158 156 155
128 127 141 139 136 134 134 134 135 138 136 138 135 131 128 121 115 112 107 100 97 84 72 56 62 65 39 21 1 345 340 342 350 346 339 327 321 206 195 191 179 169 167
123 126 136 140 136 132 129 130 133 134 129 136 130 126 122 116 110 104 97 86 76 66 59 42 26 19 1 349 336 326 319 323 331 335 339 337 340 227 204 192 191 183 179
128 124 128 132 132 130 130 130 133 131 130 134 128 122 117 111 102 89 81 78 73 60 47 36 21 5 348 341 337 327 318 317 319 319 323 323 326 279 215 198 197 189 189
127 129 123 131 122 129 132 133 128 128 131 129 124 120 119 112 108 102 92 84 82 78 69 54 33 21 11 1 348 326 316 329 322 313 313 310 317 327 242 217 203 201 199
134 133 127 125 125 119 128 132 127 124 126 123 123 126 125 119 110 104 101 100 88 77 58 32 27 22 20 22 18 22 22 353 344 324 319 326 317 290 267 253 240 226 223
138 141 137 131 124 121 126 139 134 139 141 131 131 135 131 126 122 116 112 96 74 71 67 66 72 62 47 40 41 44 45 33 14 29 20 17 18 13 287 267 250 236 233
154 145 140 132 133 135 141 139 138 141 147 149 149 142 138 136 127 128 106 92 86 85 78 70 64 56 47 40 32 33 40 42 27 21 25 28 36 34 36 30 236 236 239
156 152 149 147 152 147 150 152 147 143 144 144 150 140 132 123 126 107 99 97 86 74 67 57 51 47 42 33 25 21 18 26 18 16 11 17 33 42 43 32 6 317 289
159 156 150 155 159 158 153 158 157 136 129 119 130 150 127 117 110 104 102 100 81 70 66 55 49 42 38 36 40 37 35 26 17 38 30 48 42 38 41 38 28 27 25
162 158 156 159 163 169 163 162 150 136 125 121 109 123 130 120 111 112 107 99 87 80 75 60 50 41 32 21 27 25 17 15 35 91 76 68 66 60 54 52 45 44 39
166 167 156 164 171 156 140 127 117 116 118 107 113 123 136 128 126 124 120 101 94 95 91 88 79 57 38 17 15 6 351 356 31 115 104 85 83 72 66 64 57 51 46
171 166 165 165 154 142 123 114 114 122 114 107 122 131 132 129 127 127 119 104 117 109 96 76 57 53 37 15 3 343 345 359 17 118 110 104 85 82 80 72 63 54 51
163 168 166 153 142 133 119 106 106 96 100 102 109 116 122 129 129 116 105 102 112 80 65 49 36 40 26 6 319 336 358 13 98 109 114 95 82 84 72 74 69 64 59
166 160 149 142 139 131 118 114 105 104 98 111 109 98 115 128 128 119 111 114 99 80 73 64 47 63 17 353 348 8 12 52 91 108 99 99 101 98 89 84 80 73 64
162 154 147 149 144 139 130 122 109 99 96 102 92 91 110 124 122 109 107 103 98 80 61 66 86 43 43 346 19 48 41 66 55 59 71 87 93 102 97 84 83 76 66
154 152 154 149 149 141 139 136 130 128 117 90 95 92 85 122 115 106 106 100 97 94 94 84 95 45 26 3 55 37 58 47 56 44 60 66 76 79 82 83 82 73 62
161 158 152 147 150 147 143 139 131 136 116 119 110 83 91 102 114 102 112 115 118 103 76 63 78 114 58 14 115 107 98 28 33 42 38 40 35 73 81 85 97 88 72
163 164 154 153 153 151 140 122 117 101 100 91 73 68 55 93 101 109 109 111 97 90 88 77 72 84 109 32 36 129 105 169 140 345 35 31 50 60 56 79 91 86 74
165 156 152 153 148 147 146 141 151 146 141 151 139 125 94 97 93 94 102 96 89 93 93 85 73 87 109 85 15 36 55 107 146 127 354 28 26 63 65 79 92 91 70
147 145 145 145 148 154 154 149 149 149 118 132 132 130 125 116 115 110 112 110 106 102 98 95 80 73 67 99 101 118 75 54 52 109 172 331 29 29 58 66 80 76 61
124 130 136 149 149 157 163 161 161 153 142 141 145 139 141 130 110 110 114 116 121 116 108 100 93 88 86 75 67 55 70 123 90 100 109 308 17 7 41 56 76 71 64